Location: Asarope
(8.2500°N, 4.4833°E)
Time: 20:30:34
(UTC+00:00)

Hubble Space Telescope - Pass Details

Date: 04 August 2021
Orbit: 535 x 539 km, 28.5° (Epoch: 20 September)

Event Time Altitude Azimuth Distance (km) Brightness Sun altitude
Rises 20:23:18 0° 302° (WNW) 2,665 5.4 -33.4°
Reaches altitude 10° 20:25:34 10° 305° (NW) 1,774 4.2 -33.9°
Enters shadow 20:26:25 16° 307° (NW) 1,448 3.6 -34.1°
